ONEWEB-0560 (55145 NORAD) Tracking and Keplerian Element Data

This shows tracking and keplerian element data for the satellite.

Feedback or suggestion? Click here.




ElementValue
Catalog55145
NameONEWEB-0560
Epoch Orbit130
Epoch Day13.91667824
Epoch Year2023
RAAN284.14
Inclination86.5124
Eccentricity0.0012747
Argument of Perigee209.015
Mean Anonmoly65.7559
Mean Motion14.91653329
Decay Rate-0.00047622
L11 55145U 23004F 23013.91667824 -.00047622 00000+0 -47750-2 0 9998
L22 55145 86.5124 284.1400 0012747 209.0150 65.7559 14.91653329 1309



Live tracking and technical data element details for ONEWEB-0560 (NORAD 55145). ONEWEB-0560 can be tracked NOW for your location showing map with azimuth and elevation plus other details from your city location.







IsCatalogInMostPopularTable: catalog: 55145, numindb: 3
Update: records affected: 1



GetName: 55145 ONEWEB-0560

Hit Count: updated at: Tue, 07 Feb 2023 14:09:02 GMT